Tracking 25963 objects as of 12-Aug-2022
HD Live streaming from Space Station
objects crossing your sky now

EKRAN 7

Track EKRAN 7 now!
EKRAN 7 is classified as:


NORAD ID: 12564
Int'l Code: 1981-061A
Perigee: 35,785.6 km
Apogee: 35,826.3 km
Inclination: 9.8 °
Period: 1,436.7 minutes
Semi major axis: 42176 km
RCS: 3.9811 m2 (large)
Launch date: June 26, 1981
Source: Commonwealth of Independent States (former USSR) (CIS)
Launch site: TYURATAM MISSILE AND SPACE COMPLEX (TTMTR)
aabbcc
Your satellite tracking list
Your tracking list is empty




NASA's NSSDC Master Catalog

Two Line Element Set (TLE):
1 12564U 81061A   22223.83653649  .00000050  00000-0  00000+0 0  9993
2 12564   9.8069 306.7023 0004829  94.2508 279.3304  1.00228201115410
Source of the keplerian elements: AFSPC